Location: Berlin
(38.3226°N, 75.2177°W)
Time: 18:04:03
(UTC+00:00)

PAYLOAD A - Pass Details

Date: 26 October 2020
Orbit: 693 x 831 km, 98.3° (Epoch: 03 December)

Event Time Altitude Azimuth Distance (km) Brightness Sun altitude
Rises 09:06:21 0° 9° (N) 3,227 7.4 -27.0°
Reaches altitude 10° 09:08:38 10° 7° (N) 2,318 6.6 -26.6°
Enters shadow 09:12:43 54° 339° (NNW) 954 4.3 -25.8°
